Knox, IN

1:35 AM CDT on September 23, 2017 (GMT -0500)
Starke County

Weather History for KOXI - February, 2012

Change the Weather History Date:

Thursday, February 9, 2012

  Actual Average (KRCR) Record (KRCR)
Temperature  
Mean Temperature 26 °F -  
Max Temperature 33 °F 30 °F 32 °F (2015)
Min Temperature 19 °F 11 °F 8 °F (2014)
Degree Days  
Heating Degree Days 39    
Moisture  
Dew Point 21 °F    
Average Humidity 78    
Maximum Humidity 93    
Minimum Humidity 60    
Precipitation  
Precipitation 0.00 in - - ()
Sea Level Pressure  
Sea Level Pressure 30.24 in    
Wind  
Wind Speed 9 mph (SW)    
Max Wind Speed 16 mph    
Max Gust Speed 18 mph    
Visibility 10 miles    
Events      
Averages and records for this station are not official NWS values.
T = Trace of Precipitation, MM = Missing Value Source: NWS Daily Summary

Daily Weather History Graph

Daily Weather History Graph

Search for Another Location

Airport or City:

Trip Planner

Search our weather history database for the weather conditions in past years. The results will help you decide how hot, cold, wet, or windy it might be!

Date:

Astronomy

Feb. 09, 2012 Rise Set
Actual Time 6:49 AM CST 5:12 PM CST
Civil Twilight 6:21 AM CST 5:41 PM CST
Nautical Twilight 5:48 AM CST 6:13 PM CST
Astronomical Twilight 5:16 AM CST 6:46 PM CST
Moon 7:42 PM CST (2/9) 7:23 AM CST (2/9)
Length of Visible Light 11h 20m
Length of Day
10h 22m
Waning Gibbous, 96% of the Moon is Illuminated
Feb 9
Waning Gibbous
Feb 14
Last Quarter
Feb 21
New
Feb 29
First Quarter
Mar 8
Full

Hourly Weather History & Observations

Time (CST) Temp. Windchill Dew Point Humidity Pressure Visibility Wind Dir Wind Speed Gust Speed Precip Events Conditions
12:15 AM 23.7 °F 15.6 °F 21.0 °F 89% 30.30 in 10.0 mi WSW 6.9 mph - N/A   Clear
12:35 AM 23.9 °F 15.8 °F 21.0 °F 89% 30.30 in 10.0 mi WSW 6.9 mph - N/A   Clear
12:55 AM 24.3 °F 15.4 °F 21.2 °F 88% 30.29 in 10.0 mi West 8.1 mph - N/A   Clear
1:15 AM 23.9 °F 16.8 °F 20.8 °F 88% 30.29 in 10.0 mi SW 5.8 mph - N/A   Clear
1:35 AM 22.8 °F 15.5 °F 20.3 °F 90% 30.29 in 10.0 mi WSW 5.8 mph - N/A   Clear
1:55 AM 22.3 °F 14.9 °F 20.1 °F 91% 30.29 in 10.0 mi SW 5.8 mph - N/A   Clear
2:15 AM 22.1 °F 14.7 °F 20.1 °F 92% 30.29 in 10.0 mi WSW 5.8 mph - N/A   Clear
2:35 AM 22.8 °F 12.9 °F 20.3 °F 90% 30.28 in 10.0 mi WSW 9.2 mph - N/A   Clear
2:55 AM 23.7 °F 14.0 °F 20.7 °F 88% 30.28 in 10.0 mi WSW 9.2 mph - N/A   Clear
3:15 AM 23.4 °F 15.2 °F 20.5 °F 89% 30.28 in 10.0 mi WSW 6.9 mph - N/A   Clear
3:35 AM 22.1 °F 13.7 °F 19.8 °F 91% 30.28 in 10.0 mi SW 6.9 mph - N/A   Clear
3:55 AM 21.6 °F 15.3 °F 19.4 °F 91% 30.27 in 10.0 mi WSW 4.6 mph - N/A   Clear
4:15 AM 22.1 °F 13.7 °F 19.9 °F 91% 30.27 in 10.0 mi WSW 6.9 mph - N/A   Clear
4:35 AM 22.5 °F 13.2 °F 20.1 °F 91% 30.27 in 10.0 mi WSW 8.1 mph - N/A   Clear
4:55 AM 22.3 °F 12.2 °F 20.1 °F 91% 30.27 in 10.0 mi West 9.2 mph - N/A   Clear
5:15 AM 22.1 °F 13.7 °F 19.9 °F 91% 30.27 in 10.0 mi WSW 6.9 mph - N/A   Clear
5:35 AM 21.9 °F 12.5 °F 19.8 °F 91% 30.27 in 10.0 mi WSW 8.1 mph - N/A   Clear
5:55 AM 21.9 °F 11.7 °F 19.8 °F 91% 30.27 in 10.0 mi West 9.2 mph - N/A   Clear
6:15 AM 21.9 °F 11.7 °F 19.4 °F 90% 30.27 in 10.0 mi West 9.2 mph - N/A   Clear
6:35 AM 21.6 °F 12.1 °F 19.2 °F 91% 30.28 in 7.0 mi WSW 8.1 mph - N/A   Clear
6:55 AM 20.7 °F 11.9 °F 18.5 °F 91% 30.28 in 7.0 mi SW 6.9 mph - N/A   Clear
7:15 AM 19.8 °F 9.9 °F 18.1 °F 93% 30.28 in 7.0 mi SW 8.1 mph - N/A   Clear
7:35 AM 20.5 °F 10.8 °F 18.7 °F 93% 30.29 in 5.0 mi SW 8.1 mph - N/A   Clear
7:55 AM 21.6 °F 13.0 °F 19.4 °F 91% 30.29 in 7.0 mi SW 6.9 mph - N/A   Clear
8:15 AM 23.0 °F 11.1 °F 20.3 °F 89% 30.29 in 7.0 mi WSW 12.7 mph 17.3 mph N/A   Clear
8:35 AM 24.3 °F 13.9 °F 21.2 °F 88% 30.29 in 7.0 mi SW 10.4 mph - N/A   Clear
8:55 AM 25.3 °F 14.1 °F 21.6 °F 86% 30.29 in 10.0 mi West 12.7 mph - N/A   Clear
9:15 AM 26.2 °F 15.2 °F 21.6 °F 82% 30.28 in 10.0 mi West 12.7 mph - N/A   Clear
9:35 AM 27.0 °F 17.3 °F 21.9 °F 81% 30.28 in 10.0 mi WSW 10.4 mph - N/A   Clear
9:55 AM 28.2 °F 18.3 °F 22.6 °F 80% 30.28 in 10.0 mi West 11.5 mph - N/A   Clear
10:15 AM 28.8 °F 19.5 °F 22.5 °F 77% 30.28 in 10.0 mi WSW 10.4 mph - N/A   Clear
10:35 AM 29.7 °F 19.6 °F 22.8 °F 76% 30.28 in 10.0 mi SW 12.7 mph 18.4 mph N/A   Clear
10:55 AM 30.0 °F 18.7 °F 21.9 °F 72% 30.28 in 10.0 mi West 16.1 mph - N/A   Clear
11:15 AM 30.6 °F 19.8 °F 21.9 °F 70% 30.27 in 10.0 mi SW 15.0 mph - N/A   Scattered Clouds
11:35 AM 30.7 °F 20.0 °F 21.4 °F 68% 30.27 in 10.0 mi WSW 15.0 mph 18.4 mph N/A   Mostly Cloudy
11:55 AM 30.4 °F 19.5 °F 21.4 °F 69% 30.25 in 10.0 mi SW 15.0 mph - N/A   Scattered Clouds
12:15 PM 31.3 °F 20.7 °F 21.4 °F 67% 30.24 in 10.0 mi SSW 15.0 mph 18.4 mph N/A   Scattered Clouds
12:35 PM 32.0 °F 22.5 °F 20.8 °F 63% 30.23 in 10.0 mi WSW 12.7 mph 18.4 mph N/A   Scattered Clouds
12:55 PM 32.0 °F 22.5 °F 20.5 °F 63% 30.22 in 10.0 mi SW 12.7 mph - N/A   Clear
1:15 PM 32.4 °F 23.0 °F 20.5 °F 62% 30.21 in 10.0 mi WSW 12.7 mph - N/A   Clear
1:35 PM 32.7 °F 22.5 °F 20.7 °F 61% 30.20 in 10.0 mi WSW 15.0 mph 18.4 mph N/A   Clear
1:55 PM 32.9 °F 24.1 °F 20.5 °F 60% 30.19 in 10.0 mi SW 11.5 mph - N/A   Clear
2:15 PM 33.1 °F 23.9 °F 20.5 °F 60% 30.18 in 10.0 mi SSW 12.7 mph 18.4 mph N/A   Scattered Clouds
2:35 PM 33.1 °F 23.4 °F 20.5 °F 60% 30.18 in 10.0 mi SW 13.8 mph 17.3 mph N/A   Scattered Clouds
2:55 PM 33.1 °F 23.9 °F 20.7 °F 60% 30.18 in 10.0 mi SSW 12.7 mph - N/A   Clear
3:15 PM 32.5 °F 23.7 °F 20.7 °F 62% 30.18 in 10.0 mi SW 11.5 mph - N/A   Scattered Clouds
3:35 PM 32.5 °F 23.2 °F 20.7 °F 62% 30.17 in 10.0 mi SW 12.7 mph - N/A   Scattered Clouds
3:55 PM 32.5 °F 24.2 °F 21.2 °F 63% 30.16 in 10.0 mi SW 10.4 mph - N/A   Clear
4:15 PM 32.4 °F 22.5 °F 21.2 °F 63% 30.16 in 10.0 mi SSW 13.8 mph - N/A   Scattered Clouds
4:35 PM 32.0 °F 22.5 °F 21.0 °F 64% 30.15 in 10.0 mi SSW 12.7 mph - N/A   Clear
4:55 PM 31.8 °F 21.8 °F 21.2 °F 65% 30.15 in 10.0 mi SW 13.8 mph 17.3 mph N/A   Clear
5:15 PM 31.1 °F 23.1 °F 21.2 °F 67% 30.15 in 10.0 mi SW 9.2 mph - N/A   Scattered Clouds
5:35 PM 30.4 °F 22.2 °F 21.4 °F 69% 30.15 in 10.0 mi SSW 9.2 mph - N/A   Scattered Clouds
5:55 PM 29.3 °F 21.5 °F 21.6 °F 73% 30.15 in 10.0 mi SW 8.1 mph - N/A   Clear
6:15 PM 28.4 °F 21.2 °F 21.7 °F 76% 30.15 in 10.0 mi SSW 6.9 mph - N/A   Clear
6:35 PM 27.7 °F 20.4 °F 21.7 °F 78% 30.15 in 10.0 mi SSW 6.9 mph - N/A   Clear
7:35 PM 27.3 °F 19.9 °F 22.5 °F 82% 30.15 in 10.0 mi SSW 6.9 mph - N/A   Scattered Clouds
7:55 PM 26.8 °F 21.4 °F 22.6 °F 84% 30.14 in 10.0 mi SSW 4.6 mph - N/A   Scattered Clouds
8:15 PM 25.9 °F 19.2 °F 22.1 °F 86% 30.14 in 10.0 mi SSW 5.8 mph - N/A   Scattered Clouds
8:35 PM 26.6 °F 18.2 °F 22.8 °F 86% 30.14 in 10.0 mi SW 8.1 mph - N/A   Scattered Clouds
8:55 PM 27.0 °F 19.5 °F 23.0 °F 85% 30.15 in 10.0 mi SW 6.9 mph - N/A   Scattered Clouds
9:15 PM 26.4 °F 20.9 °F 22.5 °F 85% 30.14 in 10.0 mi SW 4.6 mph - N/A   Clear
9:35 PM 25.3 °F 18.5 °F 21.9 °F 87% 30.14 in 10.0 mi SW 5.8 mph - N/A   Clear
9:55 PM 25.7 °F 19.0 °F 22.1 °F 86% 30.13 in 10.0 mi SW 5.8 mph - N/A   Scattered Clouds
10:15 PM 25.5 °F 18.7 °F 21.6 °F 85% 30.13 in 10.0 mi SSW 5.8 mph - N/A   Scattered Clouds
10:35 PM 25.2 °F 18.3 °F 21.6 °F 86% 30.13 in 10.0 mi SW 5.8 mph - N/A   Mostly Cloudy
11:35 PM 27.9 °F 20.6 °F 22.8 °F 81% 30.12 in 10.0 mi SW 6.9 mph - N/A   Overcast
11:55 PM 28.6 °F 21.5 °F 23.0 °F 80% 30.11 in 10.0 mi SSW 6.9 mph - N/A   Overcast